• Join FlightAware (Why Join?)
  • Login
  • US Flag 
02:51PM EDT


 

Airport Tracker/Info


-or-


 

Live Flight TrackerFlight Track Log ✈ AAY875 ✈ 09-Feb-2014 ✈ KBGR - KPIE

Flight Track Log - Related Links

Times and Time Zones

All times are in EST time to prevent confusion due to time zone crossing. See the AAY875 flight status page for this flight to view local times or setup timezone preferences in your user account.

Time Position Orientation Groundspeed Altitude Reporting Facility
EST Latitude Longitude Course Direction KTS MPH feet Rate Location/Type
11:53AM 44.7492 -68.7831 218° Southwest 229 264 3,100  Level Boston Center
11:54AM 44.6911 -68.8472 218° Southwest 256 295 6,800 2,760 Climbing Boston Center
11:56AM 44.5914 -68.9975 227° Southwest 276 318 11,600 2,340 Climbing Boston Center
11:57AM 44.5117 -69.1214 228° Southwest 341 392 14,000 2,460 Climbing Boston Center
11:58AM 44.4383 -69.2256 225° Southwest 366 421 16,700 2,280 Climbing Boston Center
12:00PM 44.2769 -69.4669 225° Southwest 383 441 21,500 2,040 Climbing Boston Center
12:01PM 44.2028 -69.5767 227° Southwest 385 443 23,500 1,560 Climbing Boston Center
12:02PM 44.1264 -69.6889 227° Southwest 394 453 24,700 1,140 Climbing Boston Center
12:03PM 44.0483 -69.8033 227° Southwest 403 464 25,900 1,620 Climbing Boston Center
12:04PM 43.9717 -69.9136 226° Southwest 395 455 28,100 1,560 Climbing Boston Center
12:05PM 43.8994 -70.0186 226° Southwest 378 435 29,100 900 Climbing Boston Center
12:06PM 43.8289 -70.1272 228° Southwest 376 433 30,000 420 Climbing Boston Center
12:07PM 43.7600 -70.2258 226° Southwest 357 411 30,000  Level Boston Center
12:09PM 43.6197 -70.4225 221° Southwest 355 409 30,000  Level Boston Center
12:11PM 43.4781 -70.6219 225° Southwest 362 417 30,000  Level Boston Center
12:12PM 43.4100 -70.7203 226° Southwest 354 407 30,000  Level Boston Center
12:14PM 43.3425 -70.8178 226° Southwest 359 413 30,000  Level Boston Center
12:15PM 43.2722 -70.9142 225° Southwest 360 414 30,000  Level Boston Center
12:16PM 43.2039 -71.0097 226° Southwest 354 407 30,000  Level Boston Center
12:17PM 43.1214 -71.1258 226° Southwest 355 409 30,000  Level Boston Center
12:18PM 43.0525 -71.2214 225° Southwest 354 407 30,000  Level Boston Center
12:19PM 42.9833 -71.3183 226° Southwest 357 411 30,000  Level Boston Center
12:20PM 42.9136 -71.4136 225° Southwest 356 410 30,000  Level Boston Center
12:21PM 42.8439 -71.5089 225° Southwest 355 409 30,000  Level Boston Center
12:22PM 42.7808 -71.5967 226° Southwest 357 411 30,000  Level Boston Center
12:23PM 42.7114 -71.6925 225° Southwest 357 411 30,000  Level Boston Center
12:24PM 42.6261 -71.8097 225° Southwest 361 415 30,000  Level Boston Center
12:25PM 42.5553 -71.9056 225° Southwest 360 414 30,000  Level Boston Center
12:26PM 42.4836 -72.0028 225° Southwest 364 419 30,000  Level Boston Center
12:27PM 42.4106 -72.1000 225° Southwest 367 422 30,000  Level Boston Center
12:28PM 42.3386 -72.1975 225° Southwest 366 421 30,000  Level Boston Center
12:29PM 42.2667 -72.2928 224° Southwest 363 418 30,000  Level Boston Center
12:30PM 42.1936 -72.3908 225° Southwest 367 422 30,000  Level Boston Center
12:32PM 42.0483 -72.5825 224° Southwest 364 419 30,000  Level Boston Center
12:33PM 41.9769 -72.6781 225° Southwest 363 418 30,000  Level Boston Center
12:34PM 41.9064 -72.7708 224° Southwest 358 412 30,000  Level Boston Center
12:35PM 41.8361 -72.8631 224° Southwest 354 407 30,000  Level Boston Center
12:36PM 41.7658 -72.9547 224° Southwest 352 405 30,000  Level Boston Center
12:37PM 41.6950 -73.0467 224° Southwest 354 407 30,000  Level Boston Center
12:38PM 41.6239 -73.1400 224° Southwest 357 411 30,000  Level Boston Center
12:39PM 41.5519 -73.2317 224° Southwest 358 412 30,000  Level Boston Center
12:40PM 41.4781 -73.3297 225° Southwest 355 409 30,000  Level Boston Center
12:41PM 41.4067 -73.4200 223° Southwest 355 409 30,000  Level Boston Center
12:42PM 41.3211 -73.5303 224° Southwest 358 412 30,000  Level Boston Center
12:43PM 41.2517 -73.6256 226° Southwest 359 413 30,000  Level Boston Center
12:44PM 41.1925 -73.7294 233° Southwest 357 411 30,000  Level Boston Center
12:45PM 41.1319 -73.8317 232° Southwest 354 407 30,000  Level Boston Center
12:46PM 41.0708 -73.9342 232° Southwest 355 409 30,000  Level Boston Center
12:47PM 41.0106 -74.0356 232° Southwest 354 407 30,000  Level Boston Center
12:48PM 40.9486 -74.1375 231° Southwest 354 407 30,000  Level Boston Center
12:49PM 40.8869 -74.2394 231° Southwest 356 410 30,000  Level Boston Center
12:50PM 40.8250 -74.3417 231° Southwest 358 412 30,000  Level Boston Center
12:51PM 40.7628 -74.4481 232° Southwest 358 412 30,000  Level Boston Center
12:52PM 40.6994 -74.5483 230° Southwest 357 411 30,000  Level Boston Center
12:54PM 40.6003 -74.7144 227° Southwest 359 413 30,000  Level New York Center
12:55PM 40.5333 -74.8133 228° Southwest 363 418 30,000  Level New York Center
12:56PM 40.4550 -74.9214 226° Southwest 373 429 30,000  Level New York Center
12:57PM 40.3811 -75.0264 227° Southwest 368 423 30,000  Level New York Center
12:58PM 40.3108 -75.1239 227° Southwest 368 423 30,000 180 Level New York Center
12:59PM 40.2403 -75.2228 227° Southwest 372 428 30,400 480 Climbing New York Center
01:00PM 40.1714 -75.3203 227° Southwest 372 428 31,000 480 Climbing New York Center
01:02PM 40.0297 -75.5150 226° Southwest 371 427 32,000 240 Climbing New York Center
01:04PM 39.8806 -75.7289 228° Southwest 369 425 32,000  Level New York Center
01:06PM 39.7492 -75.9411 231° Southwest 369 425 32,000  Level New York Center
01:09PM 39.5472 -76.2619 229° Southwest 369 425 32,000  Level New York Center
01:10PM 39.4797 -76.3639 229° Southwest 373 429 32,000  Level New York Center
01:11PM 39.4125 -76.4694 231° Southwest 374 430 32,000  Level New York Center
01:12PM 39.3436 -76.5753 230° Southwest 380 437 32,000  Level New York Center
01:14PM 39.2094 -76.7853 229° Southwest 379 436 32,000  Level New York Center
01:15PM 39.1411 -76.8919 230° Southwest 382 440 32,000  Level New York Center
01:16PM 39.0589 -77.0189 230° Southwest 382 440 32,000  Level New York Center
01:17PM 38.9744 -77.1189 223° Southwest 382 440 32,000  Level Washington Center
01:18PM 38.8919 -77.2106 221° Southwest 392 451 32,000  Level Washington Center
01:19PM 38.8075 -77.3019 220° Southwest 392 451 32,000  Level Washington Center
01:20PM 38.7247 -77.3906 220° Southwest 397 457 32,000  Level Washington Center
01:21PM 38.6422 -77.4789 220° Southwest 397 457 32,000  Level Washington Center
01:22PM 38.5572 -77.5722 221° Southwest 397 457 32,000  Level Washington Center
01:23PM 38.4831 -77.6525 220° Southwest 397 457 32,000  Level Washington Center
01:24PM 38.3981 -77.7428 220° Southwest 397 457 32,000  Level Washington Center
01:28PM 38.0614 -78.1050 217° Southwest 402 463 32,000  Level Washington Center
01:29PM 37.9803 -78.1944 221° Southwest 397 457 32,000  Level Washington Center
01:31PM 37.7928 -78.3694 216° Southwest 402 463 32,000  Level Washington Center
01:32PM 37.7033 -78.4503 216° Southwest 402 463 32,000  Level Washington Center
01:33PM 37.7059 -78.4299 217° Southwest  Level FlightAware Approximate
01:33PM 37.6158 -78.5361 218° Southwest 402 463 32,000  Level Washington Center
01:34PM 37.6212 -78.5100 217° Southwest  Level FlightAware Approximate
01:34PM 37.5261 -78.6189 216° Southwest 402 463 32,000  Level Washington Center
01:35PM 37.4447 -78.6969 217° Southwest 402 463 32,000  Level Washington Center
01:36PM 37.3550 -78.7767 215° Southwest 402 463 32,000  Level Washington Center
01:37PM 37.2650 -78.8644 218° Southwest 402 463 32,000  Level Washington Center
01:38PM 37.1753 -78.9439 215° Southwest 402 463 32,000  Level Washington Center
01:39PM 37.0853 -79.0286 217° Southwest 402 463 32,000  Level Washington Center
01:40PM 36.9953 -79.1103 216° Southwest 402 463 32,000  Level Washington Center
01:41PM 36.8986 -79.2019 217° Southwest 402 463 32,000  Level Washington Center
01:44PM 36.6303 -79.4458 216° Southwest 402 463 32,000  Level Washington Center
01:46PM 36.4758 -79.5850 216° Southwest 395 455 32,000  Level Atlanta Center
01:47PM 36.3869 -79.6647 216° Southwest 395 455 32,000  Level Atlanta Center
01:50PM 36.1322 -79.8944 198° South 395 455 32,000  Level Atlanta Center
01:52PM 35.9344 -80.0328 202° Southwest 402 463 32,000  Level Atlanta Center
01:54PM 35.7064 -80.1439 201° Southwest 424 488 32,000  Level Atlanta Center
01:55PM 35.6122 -80.1942 203° Southwest 430 495 32,000  Level Atlanta Center
01:56PM 35.5373 -79.9962 198° South  Level Estimated
01:56PM 35.5053 -80.2478 202° Southwest 425 489 32,000  Level Atlanta Center
01:57PM 35.3964 -80.3011 202° Southwest 425 489 32,000  Level Atlanta Center
01:58PM 35.2814 -80.3625 204° Southwest 425 489 32,000  Level Atlanta Center
02:00PM 35.0572 -80.4739 201° Southwest 421 484 32,000  Level Atlanta Center
02:02PM 34.8250 -80.5861 201° Southwest 416 479 32,000  Level Jacksonville Center
02:04PM 34.6183 -80.6900 198° South 409 471 32,000  Level Jacksonville Center
02:05PM 34.5086 -80.7458 203° Southwest 414 476 32,000  Level Jacksonville Center
02:06PM 34.4053 -80.7911 200° South 414 476 32,000  Level Jacksonville Center
02:07PM 34.2997 -80.8439 202° Southwest 409 471 32,000  Level Jacksonville Center
02:08PM 34.2003 -80.8914 202° Southwest 404 465 32,000  Level Jacksonville Center
02:09PM 34.0947 -80.9442 202° Southwest 404 465 32,000  Level Jacksonville Center
02:11PM 33.8875 -81.0414 203° Southwest 409 471 32,000  Level Jacksonville Center
02:12PM 33.7839 -81.0908 202° Southwest 409 471 32,000  Level Jacksonville Center
02:15PM 33.4708 -81.2442 194° South 409 471 32,000  Level Jacksonville Center
02:17PM 33.2422 -81.3106 193° South 414 476 32,000  Level Jacksonville Center
02:18PM 33.1297 -81.3447 194° South 420 483 32,000  Level Jacksonville Center
02:19PM 33.0175 -81.3764 193° South 420 483 32,000  Level Jacksonville Center
02:20PM 32.9053 -81.4106 194° South 420 483 32,000  Level Jacksonville Center
02:21PM 32.9612 -81.3849 194° South  Level FlightAware Approximate
02:21PM 32.7886 -81.4469 195° South 420 483 32,000  Level Jacksonville Center
02:22PM 32.6783 -81.4783 193° South 420 483 32,000  Level Jacksonville Center
02:24PM 32.4475 -81.5458 191° South 420 483 32,000  Level Jacksonville Center
02:26PM 32.2186 -81.6131 194° South 430 495 32,000  Level Jacksonville Center
02:29PM 31.8750 -81.7133 194° South 430 495 32,000  Level Jacksonville Center
02:30PM 31.7708 -81.7442 194° South 430 495 32,000  Level Jacksonville Center
02:31PM 31.6439 -81.7797 193° South 430 495 32,000  Level Jacksonville Center
02:33PM 31.4231 -81.8433 194° South 429 494 32,000  Level Jacksonville Center
02:34PM 31.2961 -81.8811 194° South 435 501 32,000  Level Jacksonville Center
02:35PM 31.3844 -81.8500 194° South  Level FlightAware Approximate
02:35PM 31.1814 -81.9114 193° South 430 495 32,000  Level Jacksonville Center
02:36PM 31.0647 -81.9467 195° South 438 504 32,000  Level Jacksonville Center
02:37PM 30.9461 -81.9817 194° South 433 498 32,000  Level Jacksonville Center
02:38PM 30.8336 -82.0119 193° South 428 493 32,000  Level Jacksonville Center
02:40PM 30.6000 -82.0767 193° South 428 493 32,000  Level Jacksonville Center
02:41PM 30.4875 -82.1067 193° South 428 493 32,000  Level Jacksonville Center
02:42PM 30.3728 -82.1389 194° South 428 493 32,000  Level Jacksonville Center
02:43PM 30.2603 -82.1686 193° South 428 493 32,000 -120 Level Jacksonville Center
02:44PM 30.1478 -82.2008 194° South 423 487 31,800 -660 Descending Jacksonville Center
02:45PM 30.0311 -82.2353 194° South 430 495 30,700 -1,140 Descending Jacksonville Center
02:46PM 29.9267 -82.2669 195° South 430 495 29,600 -1,200 Descending Jacksonville Center
02:47PM 29.8078 -82.2989 193° South 430 495 28,400 -900 Descending Jacksonville Center
02:50PM 29.4156 -82.3369 175° South 464 534 26,000 -600 Descending Jacksonville Center
02:51PM 29.2842 -82.3258 176° South 464 534 26,000 -1,200 Level Jacksonville Center
02:52PM 29.1544 -82.3078 173° South 469 540 23,600 -2,700 Descending Jacksonville Center
02:53PM 29.0250 -82.2942 175° South 469 540 20,700 -2,880 Descending Jacksonville Center
02:54PM 28.9039 -82.2783 173° South 463 533 17,900 -3,300 Descending Jacksonville Center
02:55PM 28.7892 -82.2672 175° South 442 509 14,100 -1,800 Descending Jacksonville Center
02:56PM 28.9555 -82.2722 175° South  Level FlightAware Approximate
02:58PM 28.5000 -82.2667 180° South 384 442 11,300  Level Tampa TRACON
02:59PM 28.4167 -82.3333 215° Southwest 334 384 9,900 -720 Descending Tampa TRACON
03:00PM 28.4167 -82.4333 270° West 323 372 10,000  Climbing Tampa TRACON
03:01PM 28.4000 -82.5333 259° West 308 354 9,900 -600 Descending Tampa TRACON
03:02PM 28.4000 -82.6167 270° West 250 288 8,800 -1,440 Descending Tampa TRACON
03:04PM 28.3000 -82.7333 226° Southwest 273 314 5,500 -1,620 Descending Tampa TRACON
03:05PM 28.2333 -82.7667 204° Southwest 261 300 4,100 -840 Descending Tampa TRACON
03:06PM 28.1667 -82.7833 192° South 261 300 4,000 -360 Descending Tampa TRACON
03:07PM 28.1000 -82.7667 168° South 274 315 3,400 -540 Descending Tampa TRACON
03:08PM 28.0167 -82.7667 180° South 273 314 3,000 -420 Descending Tampa TRACON
03:09PM 27.9500 -82.7667 180° South 251 289 2,600 -180 Descending Tampa TRACON
03:11PM 27.8333 -82.7500 131° Southeast 201 231 2,500 -540 Descending Tampa TRACON
03:13PM 27.9000 -82.6833 310° West  Level FlightAware Approximate
03:13PM 27.8667 -82.6833 310° West 159 183 700  Level Tampa TRACON
03:15PM 27.9000 -82.6833 310° West  Level FlightAware Approximate
03:22PM 27.9100 -82.6875 310° West  Level Estimated
03:23PM 27.9100 -82.6875 310° West  Level Estimated
03:24PM 27.9100 -82.6875 310° West  Level Estimated
03:25PM 27.9100 -82.6875 310° West  Level Estimated
03:26PM 27.9100 -82.6875 310° West  Level Estimated
03:27PM 27.9100 -82.6875 310° West  Level Estimated
03:28PM 27.9100 -82.6875 310° West  Level Estimated
03:29PM 27.9100 -82.6875 310° West  Level Estimated
03:30PM 27.9100 -82.6875 310° West  Level Estimated